Location: Rigi Scheidegg
(47.0208°N, 8.5416°E)
Time: 01:47:09
(UTC+02:00)

ISS - Visible Passes

Search period start: 02 October 2022 00:00
Search period end: 12 October 2022 00:00
Orbit: 416 x 420 km, 51.6° (Epoch: 01 October)

Date Brightness Start Highest point End Pass type
(mag) Time Alt. Az. Time Alt. Az. Time Alt. Az.
02 Oct -3.7 19:43:36 10° WNW 19:47:00 87° SSW 19:50:21 10° ESE visible
02 Oct -1.3 21:21:09 10° W 21:23:18 16° SW 21:23:18 16° SW visible
03 Oct -1.9 20:32:52 10° W 20:35:44 25° SW 20:37:39 16° S visible
04 Oct -2.5 19:44:56 10° WNW 19:48:08 39° SW 19:51:18 10° SE visible
05 Oct -0.7 20:36:06 10° WSW 20:36:49 10° SW 20:37:32 10° SW visible
06 Oct -0.9 19:47:19 10° W 19:49:35 17° SW 19:51:49 10° S visible
